HAZ2621 ZSHC-ZUCK

Flight info

Callsign HAZ2621
Flight time N/A
Altitude 36100
Route NIVK9D/06 NIVIK W135 DOGVI W545 VEMEX W73 MADUK W51 LEGIV W164 ADGOL W50 XSH W80 IRPOG IRPOG9N
Aircraft B77W/H-SDE1E2E3FGHIJ2J3J4J5M1RWXY/LB1D1

Departure

Time N/A
Airport Hangzhou Xiaoshan International Airport (ZSHC)

Arrival

Time 2026-04-24 03:05
Airport Chongqing Jiangbei International Airport (ZUCK)
Time Latitude Longitude Altitude Speed Heading
2026-04-24 02:53 29.59120 106.71664 11305 ft 383 kts 182°
2026-04-24 02:53 29.56499 106.71481 10866 ft 369 kts 186°
2026-04-24 02:54 29.53969 106.71162 10448 ft 357 kts 188°
2026-04-24 02:54 29.51589 106.70711 10255 ft 339 kts 192°
2026-04-24 02:54 29.49310 106.70200 10148 ft 320 kts 192°
2026-04-24 02:54 29.47185 106.69701 10034 ft 304 kts 194°
2026-04-24 02:55 29.45162 106.69120 9753 ft 296 kts 196°
2026-04-24 02:55 29.43183 106.68478 9360 ft 292 kts 197°
2026-04-24 02:55 29.41262 106.67828 9193 ft 279 kts 197°
2026-04-24 02:55 29.39450 106.67184 9090 ft 265 kts 204°
2026-04-24 02:56 29.37995 106.66029 8943 ft 249 kts 233°
2026-04-24 02:56 29.37112 106.64349 8755 ft 246 kts 252°
2026-04-24 02:56 29.36837 106.62421 8517 ft 247 kts 276°
2026-04-24 02:56 29.37099 106.60490 8183 ft 244 kts 285°
2026-04-24 02:57 29.37542 106.58625 7880 ft 240 kts 291°
2026-04-24 02:57 29.38422 106.57044 7582 ft 233 kts 321°
2026-04-24 02:57 29.39762 106.56065 7298 ft 229 kts 345°
2026-04-24 02:57 29.41319 106.55994 7025 ft 225 kts 16°
2026-04-24 02:58 29.42820 106.56567 6787 ft 223 kts 20°
2026-04-24 02:58 29.44276 106.57153 6546 ft 222 kts 19°
2026-04-24 02:58 29.45730 106.57698 6400 ft 215 kts 18°
2026-04-24 02:58 29.47155 106.58208 6303 ft 209 kts 17°
2026-04-24 02:59 29.48525 106.58682 6039 ft 204 kts 17°
2026-04-24 02:59 29.49890 106.59143 5790 ft 199 kts 17°
2026-04-24 02:59 29.51197 106.59583 5546 ft 195 kts 17°
2026-04-24 02:59 29.52501 106.60024 5302 ft 193 kts 17°
2026-04-24 03:00 29.53789 106.60465 5053 ft 189 kts 17°
2026-04-24 03:00 29.55039 106.60894 4811 ft 186 kts 18°
2026-04-24 03:00 29.56270 106.61319 4569 ft 183 kts 18°
2026-04-24 03:00 29.57478 106.61736 4335 ft 180 kts 18°
2026-04-24 03:01 29.58683 106.62153 4099 ft 178 kts 18°
2026-04-24 03:01 29.59862 106.62560 3866 ft 176 kts 18°
2026-04-24 03:01 29.61035 106.62966 3635 ft 174 kts 17°
2026-04-24 03:01 29.62191 106.63365 3403 ft 170 kts 18°
2026-04-24 03:02 29.63306 106.63751 3178 ft 163 kts 18°
2026-04-24 03:02 29.64385 106.64125 2965 ft 158 kts 17°
2026-04-24 03:02 29.65439 106.64489 2756 ft 158 kts 18°
2026-04-24 03:02 29.66498 106.64855 2540 ft 157 kts 18°
2026-04-24 03:03 29.67536 106.65215 2329 ft 157 kts 17°
2026-04-24 03:03 29.68592 106.65580 2115 ft 158 kts 18°
2026-04-24 03:03 29.69651 106.65950 1905 ft 157 kts 18°
2026-04-24 03:03 29.70698 106.66310 1698 ft 157 kts 17°
2026-04-24 03:04 29.71760 106.66670 1493 ft 157 kts 17°
2026-04-24 03:04 29.72783 106.67025 1387 ft 142 kts 16°
2026-04-24 03:04 29.73630 106.67317 1387 ft 112 kts 17°
2026-04-24 03:04 29.74163 106.67494 1388 ft 57 kts
2026-04-24 03:05 29.74408 106.67476 1388 ft 21 kts 349°
2026-04-24 03:05 29.74551 106.67448 1388 ft 19 kts 357°
2026-04-24 03:05 29.74663 106.67413 1388 ft 17 kts 298°
2026-04-24 03:05 29.74699 106.67288 1388 ft 15 kts 287°
2026-04-24 03:06 29.74730 106.67170 1388 ft 14 kts 287°
2026-04-24 03:06 29.74762 106.67052 1388 ft 18 kts 287°
2026-04-24 03:06 29.74682 106.66959 1388 ft 21 kts 197°
2026-04-24 03:06 29.74553 106.66915 1388 ft 19 kts 196°
2026-04-24 03:07 29.74431 106.66873 1387 ft 17 kts 197°
2026-04-24 03:07 29.74315 106.66833 1387 ft 18 kts 197°
2026-04-24 03:07 29.74156 106.66778 1387 ft 28 kts 197°
2026-04-24 03:07 29.73973 106.66715 1387 ft 26 kts 197°
2026-04-24 03:08 29.73806 106.66657 1387 ft 24 kts 197°
2026-04-24 03:08 29.73555 106.66538 1387 ft 12 kts 263°
2026-04-24 03:08 29.73513 106.66465 1387 ft 11 kts 201°
2026-04-24 03:09 29.73447 106.66431 1387 ft 9 kts 224°
2026-04-24 03:09 29.73424 106.66365 1387 ft 8 kts 257°
2026-04-24 03:09 29.73415 106.66321 1387 ft 2 kts 257°
2026-04-24 03:09 29.73415 106.66320 1387 ft 0 kts 257°